Regional Weather Roundup
Issued by NWS

Home | Current Version | Previous Version | Graphics & Text | Print | Product List | Glossary On
Versions: 1 2 3 4 5 6 7 8 9 10 11 12 13 14 15 16 17 18 19 20 21 22 23 24 25 26 27 28 29 30 31 32 33 34 35 36 37 38 39 40 41 42 43 44 45 46 47 48 49 50
000
ASUS44 KMEG 081300
RWRTN
TENNESSEE HOURLY STATE WEATHER ROUNDUP
NATIONAL WEATHER SERVICE MEMPHIS TN
700 AM CST THU DEC 08 2016

TNZ002-004-019-021-049-052-054-088>092-081400-
WEST TENNESSEE

CITY           SKY/WX    TMP DP  RH WIND       PRES   REMARKS
MEMPHIS INTL   CLOUDY    36  26  67 N14G22    30.44R WCI  27
NWS MEMPHIS      N/A     35 N/A N/A MISG        N/A
JACKSON        MOCLDY    34  25  69 N10       30.42R WCI  26
DYERSBURG      CLOUDY    30  25  80 N10       30.45R WCI  21
PARIS          CLEAR     27  19  74 NW7       30.40R WCI  19
$$

TNZ008-025-027-028-033-062-065-066-081400-
NORTH MIDDLE TENNESSEE

CITY           SKY/WX    TMP DP  RH WIND       PRES   REMARKS
NASHVILLE      PTCLDY    34  20  56 NW8       30.37R WCI  27
CLARKSVILLE    PTCLDY    30  18  60 NW14      30.37R WCI  19
SMYRNA         PTCLDY    31  23  72 NW6       30.38R WCI  25
CROSSVILLE     CLOUDY    29  20  69 NW6       30.25R WCI  23
$$

TNZ061-075-076-078-094-096-097-081400-
SOUTH MIDDLE TENNESSEE

CITY           SKY/WX    TMP DP  RH WIND       PRES   REMARKS
TULLAHOMA      CLEAR     30  21  69 N8        30.31R WCI  23
WINCHESTER     CLEAR     32  23  69 N8        30.32R WCI  25
SHELBYVILLE    CLEAR     34  25  69 N9        30.35R WCI  26
$$

TNZ017-018-042-046-047-081400-
NORTHEAST TENNESSEE

CITY           SKY/WX    TMP DP  RH WIND       PRES   REMARKS
TRI CITIES     CLOUDY    39  26  59 W9        30.18R WCI  33
$$

TNZ012-013-036-069-073-074-081400-
CENTRAL EAST TENNESSEE

CITY           SKY/WX    TMP DP  RH WIND       PRES   REMARKS
KNOXVILLE      MOCLDY    38  20  48 N6        30.25R WCI  33
OAK RIDGE      MOCLDY    38  20  48 N6        30.28R WCI  33
GATLINBURG     CLEAR     36  19  51 W6        30.25R WCI  31
$$

TNZ083-085-099-081400-
SOUTHEAST TENNESSEE

CITY           SKY/WX    TMP DP  RH WIND       PRES   REMARKS
CHATTANOOGA    CLOUDY    39  19  44 N10       30.29R WCI  32
$$

SKY/WX REPORTED AS FAIR MEANS FEW OR NO CLOUDS BELOW
12 THOUSAND FEET.




USA.gov is the U.S. government's official web portal to all federal, state and local government web resources and services.